SCP
0 -0 -0 0 0 0 0 0 0 0 0 0 0 0 -0 0 0 0 -0 0 0 -0 -0 -0 -0 -0 -0 -0 -0 -0 -0 -0 -0 -0 -0 -0 -0 -0 -0 -0 -0 -0 0 0 -0 -0 -0 0 0
0 0 0 0 0 0 0 0 0 0 0 0 0 0 0 0 0 0 -0 0 0 0 -0 -0 -0 -0 -0 -0 -0 -0 -0 -0 -0 -0 -0 -0 -0 -0 -0 -0 0 0 0 0 0 0 0 0 0
0 0 0 0 0 0 0 0 0 0 0 0 0 0 0 0 0 0 0 0 0 0 0 0 0 -0 -0 -0 -0 -0 -0 -0 -0 -0 -0 -0 0 0 0 0 0 0 0 0 0 0 0 0 0
0 0 0 0 0 0 0 0 0 0 0 0 0 0 0 0 0 0 0 0 0 0 0 0 0 0 0 0 0 0 0 -0 -0 0 0 -0 -0 -0 0 0 0 0 0 0 0 0 0 0 0
0 0 0 0 0 0 0 0 0 0 0 0 0 0 0 0 0 0 0 0 0 0 0 0 0 0 0 0 0 0 0 0 0 0 0 0 0 0 0 0 0 0 0 0 0 0 0 0 0
0 0 0 0 0 0 0 0 0 0 0 0 0 0 0 0 0 0 0 0 0 0 0 0 0 0 0 0 0 0 0 0 0 0 0 0 0 0 0 0 0 0 0 0 0 0 0 0 0
0 0 0 0 0 0 0 0 0 0 0 0 0 0 0 0 0 0 0 0 0 0 0 0 0 0 0 0 0 0 0 0 0 0 0 0 0 0 0 0 0 0 0 0 0 0 0 0 0
0 0 0 0 0 0 0 0 0 0 0 0 0 0 0 0 0 0 0 0 0 0 0 0 0 0 0 0 0 0 0 0 0 0 0 0 0 0 0 0 0 0 0 0 0 0 0 0 0
0 0 0 0 0 0 0 0 0 0 0 0 0 0 0 0 0 0 0 0 0 0 0 0 0 0 0 0 0 0 0 0 0 0 0 0 0 0 0 0 0 0 0 0 0 0 0 0 0
0 0 0 0 0 0 0 0 0 0 0 0 0 0 0 0 0 0 0 0 0 0 0 0 0 0 0 0 0 0 0 0 0 0 0 0 0 0 0 0 0 0 0 0 0 0 0 0 0
0 0 0 0 0 0 0 0 0 0 0 0 0 0 0 0 0 0 0 0 0 0 0 0 0 0 0 0 0 0 0 0 0 0 0 0 0 0 0 0 0 0 0 0 0 0 0 0 0
0 0 0 0 0 0 0 0 0 0 0 0 0 0 0 0 0 0 0 0 0 0 0 0 0 0 0 0 0 0 0 0 0 0 0 0 0 0 0 0 0 0 0 0 0 0 0 0 0
0 0 0 0 0 0 0 0 0 0 0 0 0 0 0 0 0 0 0 0 0 0 0 0 0 0 0 0 0 0 0 0 0 0 0 0 0 0 0 0 0 0 0 0 0 0 0 0 0
0 0 0 0 0 0 0 0 0 0 0 0 0 0 0 0 0 0 0 0 0 0 0 0 0 0 0 0 0 0 0 0 0 0 0 0 0 0 0 0 0 0 0 0 0 0 -0 0 0
0 0 0 0 0 0 0 0 0 0 0 0 0 0 0 0 0 0 0 0 0 0 0 0 0 0 0 0 0 0 0 0 0 0 0 0 0 0 0 0 0 0 0 0 -0 -0 -0 -0 0
0 0 0 0 0 0 0 0 0 0 0 0 0 0 0 0 0 0 0 0 0 0 0 0 0 0 0 0 0 0 0 0 0 0 0 0 0 0 0 0 0 0 0 0 0 -0 -0 -0 0
0 0 0 0 0 0 0 0 0 0 0 0 0 0 0 0 0 0 0 0 0 0 0 0 0 0 0 0 0 0 0 0 0 0 0 0 0 0 0 0 0 0 0 0 0 0 0 -0 -0
0 0 0 0 0 0 0 0 0 0 0 0 0 0 0 0 0 0 0 0 0 0 0 0 0 0 0 0 0 0 0 0 0 0 0 0 0 0 0 0 0 0 0 0 0 0 0 0 -0
0 0 0 0 0 0 0 0 0 0 0 0 0 0 0 0 0 0 0 0 0 0 0 0 0 0 0 0 0 0 0 0 0 0 0 0 0 0 0 0 0 0 0 0 0 0 0 0 0
0 0 0 0 0 0 0 0 0 0 0 0 0 0 0 0 0 0 0 0 0 0 0 0 0 0 0 0 0 0 0 0 0 0 0 0 0 0 0 0 0 0 0 0 0 0 0 0 0
0 0 0 0 0 0 0 -0 0 0 0 0 0 0 0 0 0 0 0 0 0 0 0 0 0 0 0 0 0 0 0 0 0 0 0 0 0 0 0 0 0 0 0 0 0 0 0 0 0
0 0 0 0 0 0 0 -0 0 0 0 0 0 0 0 0 0 0 0 0 0 0 0 0 0 0 0 0 0 0 0 0 0 0 0 0 0 0 0 0 0 0 0 0 0 0 0 0 0
0 0 0 0 0 0 0 0 0 0 0 0 0 0 0 0 0 0 0 0 0 0 0 0 0 0 0 0 0 0 0 0 0 0 0 0 0 0 0 0 0 0 0 0 0 0 0 0 0
0 0 0 0 0 0 0 0 0 0 0 0 0 0 0 0 0 0 0 0 0 0 0 0 0 0 0 0 0 0 0 0 0 0 0 0 0 0 0 0 0 0 0 0 0 0 0 0 0
0 0 0 0 0 0 0 0 0 0 0 0 0 0 0 0 0 0 0 0 0 0 0 0 0 0 0 0 0 0 0 0 0 0 0 0 0 0 0 0 0 0 0 0 0 0 0 0 0
0 0 0 0 0 0 0 0 0 0 0 0 0 0 0 0 0 0 0 0 0 0 0 0 0 0 0 0 0 0 0 0 0 0 0 0 0 0 0 0 0 0 0 0 0 0 0 0 0
0 0 0 0 0 0 0 0 0 0 0 0 0 0 0 0 0 0 0 0 0 0 0 0 0 0 0 0 0 0 0 0 0 0 0 0 0 0 0 0 0 0 0 0 0 0 0 0 0
0 0 0 0 0 0 0 0 0 0 0 0 0 0 0 0 0 0 0 0 0 0 0 0 0 0 0 0 0 0 0 0 0 0 0 0 0 0 0 0 0 0 0 0 0 0 0 0 0
0 0 0 0 0 0 0 0 0 0 0 0 0 0 0 0 0 0 0 0 0 0 0 0 0 0 0 0 0 0 0 0 0 0 0 0 0 0 0 0 0 0 0 0 0 0 0 0 0
0 0 0 0 0 0 0 0 0 0 0 0 0 0 0 0 0 0 0 0 0 0 0 0 0 0 0 0 0 0 0 0 0 0 0 0 0 0 0 0 0 0 0 0 0 0 0 0 0
Wind_Speed_500mb
13 13 9 2 8 6 7 10 2 12 12 7 15 17 21 2 7 1 19 29 17 8 1 5 8 9 13 13 14 15 16 16 19 20 21 21 22 21 22 20 19 19 20 19 19 19 18 19 23
8 8 3 2 7 8 6 10 17 16 8 19 14 8 8 9 9 7 23 23 12 6 1 5 7 7 9 11 14 17 20 23 24 26 26 28 27 29 29 28 27 27 26 26 24 25 25 25 26
11 8 4 3 3 8 2 15 15 12 24 13 10 9 5 5 14 18 26 22 15 8 7 7 4 6 8 8 10 17 21 24 27 29 31 34 34 31 28 30 34 34 34 34 34 36 34 33 33
10 4 2 8 8 4 4 14 16 23 14 11 7 8 7 20 14 25 31 21 16 14 13 7 5 6 3 3 5 8 10 15 18 22 24 30 33 36 34 36 36 36 38 39 40 42 41 42 43
10 4 6 6 6 4 6 11 24 26 15 13 15 5 7 23 27 30 32 27 23 19 15 12 8 4 6 8 9 10 12 14 17 20 21 26 27 31 33 36 39 41 42 41 42 46 45 45 46
6 3 8 10 6 5 7 16 23 26 14 9 11 7 6 19 35 37 36 33 29 24 18 13 11 11 12 13 14 15 15 17 18 19 22 25 28 30 32 36 38 40 42 45 49 51 49 48 50
6 5 5 5 5 6 7 19 26 28 21 18 7 9 8 26 41 42 41 37 32 26 20 17 17 15 16 15 14 13 14 15 17 18 20 22 25 28 31 36 39 44 45 44 46 50 56 57 57
4 4 5 7 6 6 11 20 9 27 25 18 20 12 9 27 46 49 46 41 36 32 29 27 25 23 19 16 13 9 6 8 11 13 14 16 18 21 25 29 33 38 40 42 46 51 53 53 58
5 7 8 6 10 3 13 17 13 14 12 17 23 26 22 16 47 55 53 48 44 40 37 35 32 27 23 20 15 11 8 8 8 9 10 13 16 20 23 27 31 35 37 41 43 44 46 51 57
6 6 5 2 6 6 11 21 13 12 19 21 29 45 40 30 48 59 60 57 53 48 45 40 36 31 28 24 17 12 8 7 6 7 9 13 17 22 26 28 29 31 35 39 42 44 45 46 48
2 6 1 6 12 10 11 12 14 15 24 35 36 34 47 46 52 60 60 57 54 51 49 44 39 34 30 24 19 16 11 9 9 9 12 16 21 26 29 31 33 36 37 38 40 42 44 45 47
7 9 7 4 6 8 10 8 12 35 49 26 26 32 37 51 60 65 65 62 63 58 52 46 40 34 30 25 21 16 14 11 11 12 15 18 23 27 31 34 37 40 41 42 44 45 47 47 48
9 7 10 12 14 16 14 25 21 39 46 44 48 42 40 46 56 61 61 64 64 63 57 51 45 39 34 30 24 21 17 13 13 15 16 19 24 29 33 36 39 42 45 47 48 50 50 51 54
5 10 17 14 14 16 13 14 6 16 19 27 39 46 50 52 57 59 69 74 74 67 62 56 49 43 37 31 28 24 20 16 16 17 18 20 25 31 36 40 43 46 49 53 54 56 57 57 58
3 13 15 21 10 10 9 17 24 45 34 31 37 39 44 54 58 71 74 80 78 72 65 60 53 47 40 37 36 29 23 18 18 18 19 23 29 34 38 42 46 51 55 59 61 62 63 65 65
6 6 8 10 14 6 8 31 20 22 25 35 38 39 45 54 64 68 73 78 76 74 72 64 57 51 46 43 38 30 23 20 19 17 19 24 29 34 38 43 48 52 56 60 63 66 68 69 70
10 20 17 9 20 7 21 31 11 23 28 45 54 50 51 53 60 69 77 79 80 78 71 64 58 53 48 43 38 31 25 24 21 19 20 24 29 33 39 44 51 54 58 61 64 66 69 73 75
21 15 16 21 10 17 23 42 45 65 47 71 75 57 55 55 68 70 79 81 83 80 73 66 62 57 50 44 41 36 32 29 24 20 21 25 31 37 42 47 53 56 59 63 66 69 67 69 70
14 15 33 30 8 10 32 40 49 65 59 72 73 63 54 59 56 65 75 81 84 81 76 72 68 61 53 50 48 45 40 33 28 25 23 26 32 38 44 49 51 56 60 64 68 69 72 67 70
16 25 39 26 4 13 29 43 47 46 63 69 70 66 48 45 43 56 72 82 90 88 83 78 72 65 59 58 57 54 47 40 33 27 24 27 34 39 45 48 49 56 63 65 67 70 71 71 64
23 35 28 20 12 14 23 33 14 16 27 39 61 54 40 44 45 53 66 79 90 93 90 85 76 70 67 64 61 58 52 44 34 28 28 32 34 40 43 45 50 56 63 66 69 70 71 72 68
25 18 22 15 10 23 8 39 22 18 22 26 63 38 39 41 43 47 54 70 87 96 91 86 80 73 70 67 63 61 55 44 36 33 33 33 36 39 44 46 50 59 64 69 72 73 73 73 72
11 4 9 6 16 12 23 20 19 4 13 36 40 32 41 44 42 43 50 57 65 83 91 87 82 78 75 70 64 60 54 45 40 36 34 36 37 40 44 47 53 60 66 70 73 74 76 76 75
17 6 3 2 6 18 32 28 18 10 13 16 26 27 28 36 36 36 39 40 52 66 84 88 87 84 79 73 67 61 52 44 41 37 37 36 40 43 44 47 58 64 69 73 75 76 76 77 78
9 9 12 12 11 25 6 16 41 30 28 27 37 25 26 30 31 33 40 43 47 56 71 92 94 90 84 75 68 60 51 45 40 38 38 42 43 45 47 54 61 67 72 76 76 77 77 76 77
23 17 12 21 25 42 14 22 29 19 35 50 27 30 23 31 33 36 39 42 46 52 62 85 97 94 87 77 69 60 50 43 40 38 41 42 46 48 52 61 68 74 77 76 75 78 78 78 77
16 17 5 7 4 15 24 48 18 13 20 18 37 34 44 44 40 41 41 45 44 49 60 75 95 97 89 81 70 59 51 43 39 42 40 41 46 53 60 67 74 77 77 74 73 76 78 75 74
9 9 8 7 12 31 49 58 36 20 29 19 22 39 47 44 44 48 46 48 48 47 56 69 90 100 92 81 70 60 51 43 40 39 39 42 48 57 64 71 75 76 74 72 71 73 73 73 75
12 13 9 6 10 19 36 36 7 11 9 23 26 41 36 44 56 52 46 51 51 52 60 70 87 100 98 84 72 61 51 44 38 35 39 44 51 60 66 72 74 72 71 71 73 75 76 77 79
17 30 36 19 22 18 26 51 15 9 7 8 15 32 29 29 45 50 50 53 60 64 68 78 89 101 101 86 73 61 52 42 37 37 39 45 52 59 67 70 69 67 69 72 76 81 81 83 84
Wind_Direction_500mb
155 152 148 128 231 237 156 174 205 171 180 156 149 193 208 2 201 322 166 169 176 195 203 277 265 263 283 280 267 252 239 238 244 251 258 262 266 263 261 258 260 261 264 272 275 278 286 293 300
169 158 120 227 252 240 143 159 199 180 144 136 148 150 185 206 188 168 158 172 169 189 67 307 321 306 285 272 270 265 262 266 271 273 273 272 273 272 279 280 277 274 270 266 267 270 276 277 279
156 164 218 235 249 274 246 186 182 166 151 158 159 197 202 219 194 170 177 172 173 184 210 247 294 294 289 289 285 268 267 269 273 278 282 287 285 282 285 286 284 282 277 275 275 271 267 269 272
154 143 76 250 255 235 286 180 168 149 188 205 199 203 226 200 181 186 182 179 183 192 197 193 205 236 263 316 293 283 277 277 278 279 281 278 282 286 282 276 275 278 280 281 280 280 279 277 272
173 209 226 239 230 253 218 194 180 176 177 186 188 211 221 203 194 187 185 186 188 188 182 181 205 256 289 296 292 294 291 286 284 283 285 285 287 289 290 288 284 278 273 272 274 277 276 277 275
212 233 238 254 214 232 213 190 186 206 203 175 204 225 231 219 198 191 188 191 191 192 199 207 238 263 280 289 290 294 297 298 296 297 298 299 301 298 296 293 291 290 288 283 277 273 271 270 271
256 232 288 287 281 242 207 172 205 208 219 221 215 233 216 215 202 197 197 196 199 204 213 225 236 242 250 263 273 279 290 303 311 316 319 319 316 314 310 306 305 299 294 289 283 279 275 272 270
186 243 202 206 223 244 171 177 200 209 223 223 203 239 222 219 204 199 201 203 208 211 214 221 227 232 237 241 243 247 272 307 318 321 327 331 331 328 324 321 317 316 314 308 297 289 286 281 275
164 234 243 226 196 153 171 204 200 214 210 208 211 229 232 217 204 202 204 207 210 212 216 219 223 227 232 235 230 235 262 288 309 327 334 332 333 332 332 331 331 329 326 321 317 314 304 292 282
234 254 250 216 192 235 202 221 209 204 211 233 236 239 237 231 209 209 209 210 212 214 218 219 220 223 225 227 231 240 248 268 291 302 320 331 335 334 334 334 332 330 328 326 322 318 315 310 303
224 267 194 238 231 218 226 229 212 234 239 237 232 237 238 230 216 214 217 218 217 218 218 219 220 221 223 226 233 239 249 263 280 306 322 327 332 332 332 332 332 332 331 330 329 327 325 322 316
240 246 233 262 216 196 222 191 225 225 247 261 256 250 245 228 223 220 218 215 214 218 222 222 222 224 228 230 233 241 254 271 294 307 314 320 326 329 328 327 328 330 331 332 330 328 326 323 320
228 215 230 250 256 242 239 241 251 249 255 256 263 261 249 236 228 224 220 219 220 220 222 222 223 224 227 229 233 243 250 261 280 290 300 313 319 323 324 327 328 329 328 327 325 324 324 321 318
191 254 261 267 251 240 234 250 223 259 223 232 245 252 249 241 233 222 219 220 220 221 222 223 224 226 228 231 236 240 243 255 272 287 298 308 317 323 327 327 326 325 323 322 322 321 319 317 315
300 290 275 228 227 236 213 255 235 263 255 254 251 245 242 241 230 233 228 223 223 223 223 224 225 227 227 229 233 234 241 256 271 283 296 313 321 322 322 322 321 320 320 322 321 319 318 316 314
239 249 256 160 177 192 198 277 254 264 247 251 248 242 247 240 236 232 226 225 224 224 224 223 224 226 227 230 232 232 240 253 265 280 300 312 314 316 317 317 318 319 321 320 317 318 317 316 316
213 272 231 269 211 159 213 278 263 243 254 266 264 256 249 243 231 230 226 225 225 224 222 223 224 226 230 232 233 234 240 246 255 268 292 304 309 313 314 318 316 318 318 318 318 319 320 320 319
263 247 253 263 185 215 232 258 278 276 262 266 272 266 250 238 238 234 228 224 224 224 223 224 227 229 231 232 233 233 236 239 247 264 284 301 311 315 316 315 314 319 321 322 322 321 320 320 319
266 259 261 267 200 245 256 262 268 280 277 265 272 266 255 243 250 231 228 224 224 224 224 225 226 229 229 230 230 229 231 232 242 257 283 304 310 311 313 313 317 320 321 321 320 319 319 317 318
233 260 264 280 250 220 275 273 273 268 268 270 271 270 257 248 232 223 224 224 226 227 226 226 227 229 230 232 231 229 228 232 241 255 281 297 299 310 310 309 319 319 315 315 316 317 315 313 315
228 236 256 267 323 237 293 275 241 256 263 271 263 260 250 239 227 219 222 225 226 226 227 228 228 231 232 231 231 230 229 234 243 260 275 287 306 304 302 311 316 313 311 312 313 312 309 307 306
240 231 245 266 296 282 5 291 279 252 245 264 273 253 242 241 232 225 225 225 227 230 229 229 230 230 232 232 231 229 230 235 245 257 276 291 294 299 305 308 310 307 310 313 309 306 302 300 297
249 110 173 209 257 316 257 268 280 167 241 259 262 257 234 228 229 230 232 234 234 230 231 229 229 230 231 232 231 231 234 241 251 263 277 287 295 300 299 306 310 310 308 305 303 301 297 293 288
135 120 145 154 258 255 259 225 275 242 212 246 265 236 224 212 217 229 235 228 227 230 232 229 229 230 231 230 230 232 237 244 255 268 277 289 294 295 303 311 308 306 305 305 302 297 294 290 288
195 180 277 256 225 264 152 234 262 283 242 233 256 255 216 206 209 225 226 221 222 228 230 227 228 228 229 229 231 232 237 246 257 267 284 288 293 302 311 309 306 306 305 302 299 297 293 291 286
184 217 204 261 277 288 113 251 278 227 252 248 259 257 225 221 234 232 229 226 223 231 231 228 228 228 228 227 229 233 239 247 261 273 279 290 301 308 308 306 306 306 302 301 300 297 293 291 285
164 199 235 288 105 281 259 262 239 186 251 250 253 247 243 247 240 230 231 231 225 232 237 236 227 227 228 227 228 233 239 246 257 270 283 297 303 305 308 308 307 306 306 305 301 296 293 289 284
225 140 139 200 260 258 276 281 279 239 244 212 237 239 242 240 228 232 233 237 230 239 242 237 229 229 228 226 228 232 238 246 258 272 287 295 301 305 309 309 310 311 311 308 303 300 296 290 288
171 204 227 311 227 253 265 270 103 171 263 207 219 233 243 242 231 230 240 235 237 240 238 237 229 225 225 222 226 230 237 246 258 274 286 295 304 308 310 311 312 313 313 309 305 300 296 292 289
252 232 215 225 228 235 259 270 118 58 146 182 237 243 252 257 239 230 242 237 242 242 235 236 227 224 224 221 223 226 234 243 257 272 285 297 306 311 313 314 315 316 315 314 309 305 301 296 291
Wind_Speed_850mb
13 13 9 2 8 6 7 10 2 12 12 7 15 17 21 2 7 1 19 29 17 8 1 5 8 9 13 13 14 15 16 16 19 20 21 21 22 21 22 20 19 19 20 19 19 19 18 19 23
8 8 3 2 7 8 6 10 17 16 8 19 14 8 8 9 9 7 23 23 12 6 1 5 7 7 9 11 14 17 20 23 24 26 26 28 27 29 29 28 27 27 26 26 24 25 25 25 26
11 8 4 3 3 8 2 15 15 12 24 13 10 9 5 5 14 18 26 22 15 8 7 7 4 6 8 8 10 17 21 24 27 29 31 34 34 31 28 30 34 34 34 34 34 36 34 33 33
10 4 2 8 8 4 4 14 16 23 14 11 7 8 7 20 14 25 31 21 16 14 13 7 5 6 3 3 5 8 10 15 18 22 24 30 33 36 34 36 36 36 38 39 40 42 41 42 43
10 4 6 6 6 4 6 11 24 26 15 13 15 5 7 23 27 30 32 27 23 19 15 12 8 4 6 8 9 10 12 14 17 20 21 26 27 31 33 36 39 41 42 41 42 46 45 45 46
6 3 8 10 6 5 7 16 23 26 14 9 11 7 6 19 35 37 36 33 29 24 18 13 11 11 12 13 14 15 15 17 18 19 22 25 28 30 32 36 38 40 42 45 49 51 49 48 50
6 5 5 5 5 6 7 19 26 28 21 18 7 9 8 26 41 42 41 37 32 26 20 17 17 15 16 15 14 13 14 15 17 18 20 22 25 28 31 36 39 44 45 44 46 50 56 57 57
4 4 5 7 6 6 11 20 9 27 25 18 20 12 9 27 46 49 46 41 36 32 29 27 25 23 19 16 13 9 6 8 11 13 14 16 18 21 25 29 33 38 40 42 46 51 53 53 58
5 7 8 6 10 3 13 17 13 14 12 17 23 26 22 16 47 55 53 48 44 40 37 35 32 27 23 20 15 11 8 8 8 9 10 13 16 20 23 27 31 35 37 41 43 44 46 51 57
6 6 5 2 6 6 11 21 13 12 19 21 29 45 40 30 48 59 60 57 53 48 45 40 36 31 28 24 17 12 8 7 6 7 9 13 17 22 26 28 29 31 35 39 42 44 45 46 48
2 6 1 6 12 10 11 12 14 15 24 35 36 34 47 46 52 60 60 57 54 51 49 44 39 34 30 24 19 16 11 9 9 9 12 16 21 26 29 31 33 36 37 38 40 42 44 45 47
7 9 7 4 6 8 10 8 12 35 49 26 26 32 37 51 60 65 65 62 63 58 52 46 40 34 30 25 21 16 14 11 11 12 15 18 23 27 31 34 37 40 41 42 44 45 47 47 48
9 7 10 12 14 16 14 25 21 39 46 44 48 42 40 46 56 61 61 64 64 63 57 51 45 39 34 30 24 21 17 13 13 15 16 19 24 29 33 36 39 42 45 47 48 50 50 51 54
5 10 17 14 14 16 13 14 6 16 19 27 39 46 50 52 57 59 69 74 74 67 62 56 49 43 37 31 28 24 20 16 16 17 18 20 25 31 36 40 43 46 49 53 54 56 57 57 58
3 13 15 21 10 10 9 17 24 45 34 31 37 39 44 54 58 71 74 80 78 72 65 60 53 47 40 37 36 29 23 18 18 18 19 23 29 34 38 42 46 51 55 59 61 62 63 65 65
6 6 8 10 14 6 8 31 20 22 25 35 38 39 45 54 64 68 73 78 76 74 72 64 57 51 46 43 38 30 23 20 19 17 19 24 29 34 38 43 48 52 56 60 63 66 68 69 70
10 20 17 9 20 7 21 31 11 23 28 45 54 50 51 53 60 69 77 79 80 78 71 64 58 53 48 43 38 31 25 24 21 19 20 24 29 33 39 44 51 54 58 61 64 66 69 73 75
21 15 16 21 10 17 23 42 45 65 47 71 75 57 55 55 68 70 79 81 83 80 73 66 62 57 50 44 41 36 32 29 24 20 21 25 31 37 42 47 53 56 59 63 66 69 67 69 70
14 15 33 30 8 10 32 40 49 65 59 72 73 63 54 59 56 65 75 81 84 81 76 72 68 61 53 50 48 45 40 33 28 25 23 26 32 38 44 49 51 56 60 64 68 69 72 67 70
16 25 39 26 4 13 29 43 47 46 63 69 70 66 48 45 43 56 72 82 90 88 83 78 72 65 59 58 57 54 47 40 33 27 24 27 34 39 45 48 49 56 63 65 67 70 71 71 64
23 35 28 20 12 14 23 33 14 16 27 39 61 54 40 44 45 53 66 79 90 93 90 85 76 70 67 64 61 58 52 44 34 28 28 32 34 40 43 45 50 56 63 66 69 70 71 72 68
25 18 22 15 10 23 8 39 22 18 22 26 63 38 39 41 43 47 54 70 87 96 91 86 80 73 70 67 63 61 55 44 36 33 33 33 36 39 44 46 50 59 64 69 72 73 73 73 72
11 4 9 6 16 12 23 20 19 4 13 36 40 32 41 44 42 43 50 57 65 83 91 87 82 78 75 70 64 60 54 45 40 36 34 36 37 40 44 47 53 60 66 70 73 74 76 76 75
17 6 3 2 6 18 32 28 18 10 13 16 26 27 28 36 36 36 39 40 52 66 84 88 87 84 79 73 67 61 52 44 41 37 37 36 40 43 44 47 58 64 69 73 75 76 76 77 78
9 9 12 12 11 25 6 16 41 30 28 27 37 25 26 30 31 33 40 43 47 56 71 92 94 90 84 75 68 60 51 45 40 38 38 42 43 45 47 54 61 67 72 76 76 77 77 76 77
23 17 12 21 25 42 14 22 29 19 35 50 27 30 23 31 33 36 39 42 46 52 62 85 97 94 87 77 69 60 50 43 40 38 41 42 46 48 52 61 68 74 77 76 75 78 78 78 77
16 17 5 7 4 15 24 48 18 13 20 18 37 34 44 44 40 41 41 45 44 49 60 75 95 97 89 81 70 59 51 43 39 42 40 41 46 53 60 67 74 77 77 74 73 76 78 75 74
9 9 8 7 12 31 49 58 36 20 29 19 22 39 47 44 44 48 46 48 48 47 56 69 90 100 92 81 70 60 51 43 40 39 39 42 48 57 64 71 75 76 74 72 71 73 73 73 75
12 13 9 6 10 19 36 36 7 11 9 23 26 41 36 44 56 52 46 51 51 52 60 70 87 100 98 84 72 61 51 44 38 35 39 44 51 60 66 72 74 72 71 71 73 75 76 77 79
17 30 36 19 22 18 26 51 15 9 7 8 15 32 29 29 45 50 50 53 60 64 68 78 89 101 101 86 73 61 52 42 37 37 39 45 52 59 67 70 69 67 69 72 76 81 81 83 84
Wind_Direction_850mb
155 152 148 128 231 237 156 174 205 171 180 156 149 193 208 2 201 322 166 169 176 195 203 277 265 263 283 280 267 252 239 238 244 251 258 262 266 263 261 258 260 261 264 272 275 278 286 293 300
169 158 120 227 252 240 143 159 199 180 144 136 148 150 185 206 188 168 158 172 169 189 67 307 321 306 285 272 270 265 262 266 271 273 273 272 273 272 279 280 277 274 270 266 267 270 276 277 279
156 164 218 235 249 274 246 186 182 166 151 158 159 197 202 219 194 170 177 172 173 184 210 247 294 294 289 289 285 268 267 269 273 278 282 287 285 282 285 286 284 282 277 275 275 271 267 269 272
154 143 76 250 255 235 286 180 168 149 188 205 199 203 226 200 181 186 182 179 183 192 197 193 205 236 263 316 293 283 277 277 278 279 281 278 282 286 282 276 275 278 280 281 280 280 279 277 272
173 209 226 239 230 253 218 194 180 176 177 186 188 211 221 203 194 187 185 186 188 188 182 181 205 256 289 296 292 294 291 286 284 283 285 285 287 289 290 288 284 278 273 272 274 277 276 277 275
212 233 238 254 214 232 213 190 186 206 203 175 204 225 231 219 198 191 188 191 191 192 199 207 238 263 280 289 290 294 297 298 296 297 298 299 301 298 296 293 291 290 288 283 277 273 271 270 271
256 232 288 287 281 242 207 172 205 208 219 221 215 233 216 215 202 197 197 196 199 204 213 225 236 242 250 263 273 279 290 303 311 316 319 319 316 314 310 306 305 299 294 289 283 279 275 272 270
186 243 202 206 223 244 171 177 200 209 223 223 203 239 222 219 204 199 201 203 208 211 214 221 227 232 237 241 243 247 272 307 318 321 327 331 331 328 324 321 317 316 314 308 297 289 286 281 275
164 234 243 226 196 153 171 204 200 214 210 208 211 229 232 217 204 202 204 207 210 212 216 219 223 227 232 235 230 235 262 288 309 327 334 332 333 332 332 331 331 329 326 321 317 314 304 292 282
234 254 250 216 192 235 202 221 209 204 211 233 236 239 237 231 209 209 209 210 212 214 218 219 220 223 225 227 231 240 248 268 291 302 320 331 335 334 334 334 332 330 328 326 322 318 315 310 303
224 267 194 238 231 218 226 229 212 234 239 237 232 237 238 230 216 214 217 218 217 218 218 219 220 221 223 226 233 239 249 263 280 306 322 327 332 332 332 332 332 332 331 330 329 327 325 322 316
240 246 233 262 216 196 222 191 225 225 247 261 256 250 245 228 223 220 218 215 214 218 222 222 222 224 228 230 233 241 254 271 294 307 314 320 326 329 328 327 328 330 331 332 330 328 326 323 320
228 215 230 250 256 242 239 241 251 249 255 256 263 261 249 236 228 224 220 219 220 220 222 222 223 224 227 229 233 243 250 261 280 290 300 313 319 323 324 327 328 329 328 327 325 324 324 321 318
191 254 261 267 251 240 234 250 223 259 223 232 245 252 249 241 233 222 219 220 220 221 222 223 224 226 228 231 236 240 243 255 272 287 298 308 317 323 327 327 326 325 323 322 322 321 319 317 315
300 290 275 228 227 236 213 255 235 263 255 254 251 245 242 241 230 233 228 223 223 223 223 224 225 227 227 229 233 234 241 256 271 283 296 313 321 322 322 322 321 320 320 322 321 319 318 316 314
239 249 256 160 177 192 198 277 254 264 247 251 248 242 247 240 236 232 226 225 224 224 224 223 224 226 227 230 232 232 240 253 265 280 300 312 314 316 317 317 318 319 321 320 317 318 317 316 316
213 272 231 269 211 159 213 278 263 243 254 266 264 256 249 243 231 230 226 225 225 224 222 223 224 226 230 232 233 234 240 246 255 268 292 304 309 313 314 318 316 318 318 318 318 319 320 320 319
263 247 253 263 185 215 232 258 278 276 262 266 272 266 250 238 238 234 228 224 224 224 223 224 227 229 231 232 233 233 236 239 247 264 284 301 311 315 316 315 314 319 321 322 322 321 320 320 319
266 259 261 267 200 245 256 262 268 280 277 265 272 266 255 243 250 231 228 224 224 224 224 225 226 229 229 230 230 229 231 232 242 257 283 304 310 311 313 313 317 320 321 321 320 319 319 317 318
233 260 264 280 250 220 275 273 273 268 268 270 271 270 257 248 232 223 224 224 226 227 226 226 227 229 230 232 231 229 228 232 241 255 281 297 299 310 310 309 319 319 315 315 316 317 315 313 315
228 236 256 267 323 237 293 275 241 256 263 271 263 260 250 239 227 219 222 225 226 226 227 228 228 231 232 231 231 230 229 234 243 260 275 287 306 304 302 311 316 313 311 312 313 312 309 307 306
240 231 245 266 296 282 5 291 279 252 245 264 273 253 242 241 232 225 225 225 227 230 229 229 230 230 232 232 231 229 230 235 245 257 276 291 294 299 305 308 310 307 310 313 309 306 302 300 297
249 110 173 209 257 316 257 268 280 167 241 259 262 257 234 228 229 230 232 234 234 230 231 229 229 230 231 232 231 231 234 241 251 263 277 287 295 300 299 306 310 310 308 305 303 301 297 293 288
135 120 145 154 258 255 259 225 275 242 212 246 265 236 224 212 217 229 235 228 227 230 232 229 229 230 231 230 230 232 237 244 255 268 277 289 294 295 303 311 308 306 305 305 302 297 294 290 288
195 180 277 256 225 264 152 234 262 283 242 233 256 255 216 206 209 225 226 221 222 228 230 227 228 228 229 229 231 232 237 246 257 267 284 288 293 302 311 309 306 306 305 302 299 297 293 291 286
184 217 204 261 277 288 113 251 278 227 252 248 259 257 225 221 234 232 229 226 223 231 231 228 228 228 228 227 229 233 239 247 261 273 279 290 301 308 308 306 306 306 302 301 300 297 293 291 285
164 199 235 288 105 281 259 262 239 186 251 250 253 247 243 247 240 230 231 231 225 232 237 236 227 227 228 227 228 233 239 246 257 270 283 297 303 305 308 308 307 306 306 305 301 296 293 289 284
225 140 139 200 260 258 276 281 279 239 244 212 237 239 242 240 228 232 233 237 230 239 242 237 229 229 228 226 228 232 238 246 258 272 287 295 301 305 309 309 310 311 311 308 303 300 296 290 288
171 204 227 311 227 253 265 270 103 171 263 207 219 233 243 242 231 230 240 235 237 240 238 237 229 225 225 222 226 230 237 246 258 274 286 295 304 308 310 311 312 313 313 309 305 300 296 292 289
252 232 215 225 228 235 259 270 118 58 146 182 237 243 252 257 239 230 242 237 242 242 235 236 227 224 224 221 223 226 234 243 257 272 285 297 306 311 313 314 315 316 315 314 309 305 301 296 291